This is the latest recevied weather packets stored in our database for station/object DO7CRZ-10. If no packets are shown the sender has not sent any weather packets the latest 10 day(s).
| Time | Temp. | Humidity | Pressure | Rain* | Wind** | Luminosity | Snow |
|---|---|---|---|---|---|---|---|
| 1777607967 | 8.33° C | 47% | 1028 hPa | - | - | - | - |
| 1777606221 | 6.11° C | 47% | 1028 hPa | - | - | - | - |
| 1777604475 | 7.78° C | 46% | 1028 hPa | - | - | - | - |
| 1777602729 | 7.22° C | 46% | 1028 hPa | - | - | - | - |
| 1777600983 | 6.11° C | 48% | 1028 hPa | - | - | - | - |
| 1777599237 | 6.67° C | 47% | 1028 hPa | - | - | - | - |
| 1777597491 | 7.22° C | 45% | 1028 hPa | - | - | - | - |
| 1777595746 | 7.78° C | 46% | 1027 hPa | - | - | - | - |
| 1777594000 | 7.22° C | 46% | 1028 hPa | - | - | - | - |
| 1777592254 | 8.33° C | 47% | 1028 hPa | - | - | - | - |
| 1777590508 | 8.33° C | 45% | 1028 hPa | - | - | - | - |
| 1777588762 | 9.44° C | 40% | 1028 hPa | - | - | - | - |
| 1777587016 | 10.56° C | 41% | 1028 hPa | - | - | - | - |
| 1777585271 | 10.56° C | 40% | 1028 hPa | - | - | - | - |
| 1777583525 | 10.56° C | 40% | 1028 hPa | - | - | - | - |
| 1777581779 | 11.67° C | 39% | 1028 hPa | - | - | - | - |
| 1777580033 | 11.67° C | 39% | 1028 hPa | - | - | - | - |
| 1777578287 | 12.22° C | 38% | 1028 hPa | - | - | - | - |
| 1777576541 | 13.89° C | 37% | 1027 hPa | - | - | - | - |
| 1777574796 | 14.44° C | 37% | 1027 hPa | - | - | - | - |
| 1777573050 | 15° C | 36% | 1027 hPa | - | - | - | - |
| 1777571304 | 16.11° C | 36% | 1027 hPa | - | - | - | - |
| 1777569558 | 16.11° C | 35% | 1027 hPa | - | - | - | - |
| 1777567812 | 17.22° C | 34% | 1027 hPa | - | - | - | - |
| 1777566066 | 17.22° C | 33% | 1027 hPa | - | - | - | - |
* Rain since midnight (hover to see other rain measurements)
** Current wind speed in m/s (hover to see current wind gust speed)